Weather in Burunskoye

Russia / Chechen Republic     43°51′33″N   45°46′40″E
temp.,
°C
wind,
m/s
gust,
m/s
humid.,
%
clouds,
%
prec.,
mm/h
press.,
hPa
HPBL,
m
3 march, wed
wed300:00+3nnw127424 0.0 102322
03:00+2sw117929 0.0 102222
06:00+1wsw12856 0.0 102022
09:00+4e127245 0.0 1018180
12:00+6nne1159100 0.0 1017800
15:00+8wnw3352100 0.0 10171028
18:00+6wnw8117174 0.2 10201063
21:00+4wnw7117087 0.3 10231041
4 march, thu
thu400:00+3w5878100 0.0 1024696
03:00+2w61080100 0.1 1026438
06:00+1w5108528 0.0 1027301
09:00+3w576414 0.0 1027858
12:00+6wnw45450 0.0 10261074
15:00+8wnw34360 0.0 10241434
18:00+6ssw22440 0.0 102429
21:00+4sse23490 0.0 102524
5 march, fri
fri500:00+3se23580 0.0 102437
03:00+1se12710 0.0 102222
06:00+1se11760 0.0 102222
09:00+5e12580 0.0 1021229
12:00+8ene22380 0.0 1019714
15:00+10ese22320 0.0 1018765
18:00+8ese11410 0.0 101922
21:00+7se33460 0.0 102032
6 march, sat
sat600:00+4se34760 0.0 101951
03:00+3se23800 0.0 101822
06:00+3sse23810 0.0 101822
09:00+7ssw22556 0.0 1018147
12:00+13ese22319 0.0 1015378
15:00+17ese34215 0.0 1014620
18:00+13ese333186 0.0 101428
21:00+10ene235393 0.0 101448
7 march, sun
sun700:00+8ne1257100 0.0 101323
03:00+7nw345993 0.0 101442
06:00+6nnw7118593 0.0 1017622
09:00+1n8129396 1.4 1021726
12:00+2nw3490100 0.5 1022423
15:00+1n4594100 2.5 1022344
18:00+3nw2361100 0.2 1023184
21:00+2wsw337093 0.2 102461